Location: Marcé
(47.5801°N, 0.3280°W)
Time: 01:14:36
(UTC+01:00)

Courier 1B - All Passes

Search period start: 30 November 2021 00:00
Search period end: 10 December 2021 00:00
Orbit: 962 x 1209 km, 28.3° (Epoch: 29 November)

Date Brightness Start Highest point End Pass type
(mag) Time Alt. Az. Time Alt. Az. Time Alt. Az.
30 Nov - 20:05:54 10° SSW 20:09:12 14° S 20:12:26 10° SE visible
30 Nov - 21:59:11 10° SW 22:01:53 13° S 22:04:32 10° SSE visible
01 Dec - 19:12:38 10° SSW 19:15:44 13° S 19:18:46 10° SE visible
01 Dec - 21:05:09 10° SW 21:08:27 14° S 21:11:40 10° SSE visible
02 Dec - 18:19:38 10° S 18:22:15 12° SSE 18:24:50 10° SE visible
02 Dec - 20:11:19 10° SW 20:15:00 15° S 20:18:34 10° SSE visible
02 Dec - 22:07:11 10° SSW 22:07:37 10° SSW 22:08:04 10° SSW visible
03 Dec - 17:27:14 10° S 17:28:45 11° SSE 17:30:16 10° SSE daylight
03 Dec - 19:17:40 10° SSW 19:21:31 15° S 19:25:15 10° SE visible
03 Dec - 21:11:39 10° SW 21:14:12 12° SSW 21:16:43 10° S visible
04 Dec - 18:24:08 10° SSW 18:28:00 15° S 18:31:45 10° SE visible
04 Dec - 20:17:20 10° SW 20:20:45 14° S 20:24:06 10° SSE visible
05 Dec - 17:30:50 10° SSW 17:34:29 14° S 17:38:03 10° SE daylight
05 Dec - 19:23:20 10° SW 19:27:17 15° S 19:31:07 10° SSE visible
06 Dec - 16:37:48 10° S 16:40:56 13° SSE 16:44:03 10° SE daylight
06 Dec - 18:29:30 10° SW 18:33:46 16° S 18:37:53 10° SE visible
06 Dec - 20:24:13 10° SW 20:26:29 12° SSW 20:28:42 10° S visible
07 Dec - 15:45:18 10° S 15:47:25 11° SSE 15:49:29 10° SE daylight
07 Dec - 17:35:51 10° SSW 17:40:13 16° S 17:44:29 10° SE visible
07 Dec - 19:29:35 10° SW 19:33:00 14° SSW 19:36:21 10° SSE visible
08 Dec - 16:42:22 10° SSW 16:46:40 16° S 16:50:52 10° SE daylight
08 Dec - 18:35:25 10° SW 18:39:30 15° S 18:43:30 10° SSE visible
09 Dec - 15:49:06 10° SSW 15:53:05 15° S 15:57:01 10° SE daylight
09 Dec - 17:41:28 10° SW 17:45:57 17° S 17:50:20 10° SSE visible
09 Dec - 19:37:04 10° SSW 19:38:41 11° SSW 19:40:17 10° S visible
